Regional Weather Roundup
Issued by NWS Sterling, VA

Home | Current Version | Previous Version | Graphics & Text | Print | Product List | Glossary On
Versions: 1 2 3 4 5 6 7 8 9 10 11 12 13 14 15 16 17 18 19 20 21 22 23 24 25 26 27 28 29 30 31 32 33 34 35 36 37 38 39 40 41 42 43 44 45 46 47 48 49 50
000
ASUS41 KLWX 190610
RWRLWX

REGIONAL WEATHER ROUNDUP
NATIONAL WEATHER SERVICE BALTIMORE MD/WASHINGTON DC
100 AM EST SUN FEB 19 2017

Note: "FAIR" indicates few or no clouds below 12,000 feet
with no significant weather and/or obstructions to visibility.
 TC=TEMPERATURE CELSIUS

 * =Non NWS site. Station does not report precipitation (e.g. rain,
    snow, etc.), thunder, or fog.

DCZ001-MDZ009-015-VAZ040>042-051-053>054-190700-
WASHINGTON METRO

CITY           SKY/WX    TMP DP  RH WIND       PRES   REMARKS
WASHINGTON NAT CLOUDY    55  37  50 S5        29.79F
DULLES         CLOUDY    53  37  54 NE5       29.80S
ANDREWS AFB    CLOUDY    60  32  34 SW8       29.79R
FT BELVOIR     CLOUDY    52  37  57 SE3       29.80R
QUANTICO       LGT RAIN  55  39  54 S5        29.80S
COLLEGE PARK*  MOCLDY    50  36  57 CALM      29.78S
LEESBURG*      CLOUDY    55  37  50 SW5       29.81S
MANASSAS*      LGT RAIN  55  39  54 N9        29.79S
GAITHERSBURG*  CLOUDY    52  30  43 CALM      29.83S

$$

MDZ006>007-011-014-190700-
BALTIMORE METRO

CITY           SKY/WX    TMP DP  RH WIND       PRES   REMARKS
BWI AIRPORT    CLOUDY    57  33  40 W6        29.78R
MD SCIENCE CTR   N/A     62  30  29 MISG      29.78R
ANNAPOLIS      CLOUDY    51  38  60 CALM      29.77R
FORT MEADE*    MOCLDY    48  36  61 CALM      29.80F

$$

MDZ012-015-019>023-190700-
MARYLAND EASTERN SHORE

CITY           SKY/WX    TMP DP  RH WIND       PRES   REMARKS
OCEAN CITY     CLOUDY    60  35  39 W7        29.78S
SALISBURY      CLOUDY    56  37  49 SW9       29.78S
BAY BRIDGE AP* PTCLDY    57  34  41 W5        29.77F
CAMBRIDGE*     CLOUDY    52  37  58 N6        29.76F
EASTON*        CLOUDY    58  32  37 N3        29.80F

$$

MDZ017>025-190700-
SOUTHERN MARYLAND

CITY           SKY/WX    TMP DP  RH WIND       PRES   REMARKS
PATUXENT RIVER CLOUDY    59  35  40 SW8       29.78S
ST INIGOES     CLOUDY    58  36  43 S5        29.79R
LEONARDTOWN*   CLOUDY    59  32  36 SW5       29.80R

$$

MDZ003>005-190700-
NORTH CENTRAL MARYLAND

CITY           SKY/WX    TMP DP  RH WIND       PRES   REMARKS
FREDERICK*     CLOUDY    55  36  47 S5        29.82R
HAGERSTOWN APT CLOUDY    61  36  39 W8        29.79S
WESTMINSTER*   CLOUDY    61  36  39 W8        29.78S

$$

MDZ501>502-190700-
WESTERN MARYLAND

CITY           SKY/WX    TMP DP  RH WIND       PRES   REMARKS
OAKLAND*       CLOUDY    45  36  70 SW13G21   29.87F
CUMBERLAND*    CLOUDY    59  37  44 W8        29.87S

$$

VAZ025>031-190700-
SHENANDOAH VALLEY

CITY           SKY/WX    TMP DP  RH WIND       PRES   REMARKS
WINCHESTER*    CLOUDY    59  32  36 S5        29.81R
FRONT ROYAL*   CLOUDY    61  37  41 S6        29.80S
LURAY*         LGT RAIN  54  45  71 CALM      29.82R
NEW MARKET*    CLOUDY    50  39  66 CALM      29.82R
STAUNTON*      CLOUDY    50  40  66 SE3       29.85S
WAYNESBORO*    CLOUDY    56  35  44 SW8       29.84S

$$

WVZ021-048>050-054>055-190700-
EASTERN WEST VIRGINIA PANHANDLE

CITY           SKY/WX    TMP DP  RH WIND       PRES   REMARKS
MARTINSBURG    CLOUDY    60  40  47 SW5       29.80R
PETERSBURG*    DRIZZLE   60  46  60 SW5       29.85R

$$

VAZ036>039-050-190700-
CENTRAL FOOTHILLS

CITY           SKY/WX    TMP DP  RH WIND       PRES   REMARKS
CHARLOTTESVILL CLOUDY    63  34  33 VRB6      29.80R
CULPEPER*      RAIN      53  44  70 CALM      29.78F
ORANGE*        CLOUDY    59  34  38 CALM      29.81R
GORDONSVILLE*  CLOUDY    60  35  39 CALM      29.80R
WARRENTON*     DRIZZLE   56  34  43 CALM      29.77F

$$

VAZ055>057-190700-
NORTH AND CENTRAL PIEDMONT

CITY           SKY/WX    TMP DP  RH WIND       PRES   REMARKS
FREDERICKSBRG* DRIZZLE   58  40  51 S13       29.79R
STAFFORD*      LGT RAIN  56  38  50 CALM      29.82F

$$

NCZ024-NYZ072-PAZ021-071-VAZ022-071-190700-
OTHER REGIONAL OBSERVATIONS

CITY           SKY/WX    TMP DP  RH WIND       PRES   REMARKS
NEW YORK CITY  CLOUDY    59  31  34 VRB6      29.69S
PHILADELPHIA   CLOUDY    50  37  61 SW5       29.75S
PITTSBURGH     MOCLDY    50  43  77 SW9       29.84R
ROANOKE        PTCLDY    54  34  46 W3        29.89R
RICHMOND       CLOUDY    57  36  45 S8        29.82F
RALEIGH        PTCLDY    53  43  68 SW12      29.92S

$$

ANZ530>537-190700-
MARINE OBSERVATIONS

STATION/POSITION TIME  TEMP    WIND        PRES
                       AIR SEA DIR/SP/G
                 (UTC) (F)     (DEG/KT/KT) (MB)
THOMAS PT LIGHT  0600   62 40  300/  9/ 10   N/A
BALT KEY BRIDGE  0536   60     250/  8/  8 1008.1R
COVE POINT       0536   60      40/  6/  7 1008.2F
LEWISETTA        0536   60 43  240/  6/  8 1008.5R
SOLOMONS ISLAND  0536   57 42  200/ 13/ 16   N/A
PINEY POINT      0548          360/  3/  4   N/A

$$




USA.gov is the U.S. government's official web portal to all federal, state and local government web resources and services.